Regional Weather Roundup
Issued by NWS

Home | Current Version | Previous Version | Text Only | Print | Product List | Glossary Off
Versions: 1 2 3 4 5 6 7 8 9 10 11 12 13 14 15 16 17 18 19 20 21 22 23 24 25 26 27 28 29 30 31 32 33 34 35 36 37 38 39 40 41 42 43 44 45 46 47 48 49 50

000
ASUS43 KLOT 291408
RWRIL

ILLINOIS REGIONAL WEATHER ROUNDUP
NATIONAL WEATHER SERVICE CHICAGO/ROMEOVILLE IL
900 AM CDT SUN MAR 29 2015

NOTE: "FAIR" INDICATES FEW OR NO CLOUDS BELOW 12,000 FEET WITH NO
SIGNIFICANT WEATHER AND/OR OBSTRUCTIONS TO VISIBILITY.

* THESE STATIONS ARE NOT UNDER NWS QUALITY CONTROL. THEY ALSO MAY NOT
  REPORT WEATHER SUCH AS PRECIPITATION OR FOG.

ILZ001-002-007-009-015-016-024-291500-
NORTHWEST ILLINOIS

CITY           SKY/WX    TMP DP  RH WIND       PRES   REMARKS
MOLINE         LGT RAIN  34  27  75 S18G33    29.93F WCI  23
STERLING*      CLOUDY    34  21  60 S10G20    30.01F WCI  26
SAVANNA*       LGT RAIN  33  28  80 S14       29.95F WCI  23
$$

ILZ003-004-008-010-011-017-018-291500-
NORTH CENTRAL ILLINOIS

CITY           SKY/WX    TMP DP  RH WIND       PRES   REMARKS
ROCKFORD       CLOUDY    34  20  56 S24       30.02F WCI  21
FREEPORT*      MIX PCPN  32  24  71 S24G31    29.98F WCI  19
ROCHELLE*      PTSUNNY   33  22  66 S28       30.04F WCI  19
DE KALB*       MOSUNNY   32  21  63 S24G31    30.05F WCI  19
PERU*          PTSUNNY   35  22  59 S20       30.08F WCI  24
$$

ILZ005-006-012>014-019>023-291500-
NORTHEAST ILLINOIS

CITY           SKY/WX    TMP DP  RH WIND       PRES   REMARKS
CHICAGO-OHARE  CLOUDY    34  16  47 S21G29    30.06F WCI  22
CHICAGO-MIDWAY PTSUNNY   36  17  46 S18G30    30.09F WCI  26
AURORA         MOSUNNY   35  19  52 S22G29    30.07F WCI  23
LANSING*       MOSUNNY   35  18  49 S22G30    30.13F WCI  23
JOLIET*        PTSUNNY   36  20  52 S14G28    30.11F WCI  27
WAUKEGAN       MOSUNNY   34  16  47 S20G29    30.04F WCI  23
DUPAGE AIRPORT MOSUNNY   34  18  52 S23G32    30.06F WCI  22
KANKAKEE*      PTSUNNY   36  22  58 S17G25    30.14F WCI  26
WHEELING       MOSUNNY   35  16  45 S23G30    30.07F WCI  23
MORRIS*        PTSUNNY   35  20  56 S21G26    30.10F WCI  23
ROMEOVILLE*    MOSUNNY   34  19  54 S20G25    30.09F WCI  23
NORTHERLY ISL    N/A     34  17  50 S20         N/A  WCI  23
$$

LMZ740>746-291500-
SOUTHERN LAKE MICHIGAN

STATION/POSITION SKY/WX   TEMP    WIND        PRES    VSBY  WAVE
                          AIR SEA DIR/SP/G                  HT/PER
                          (F)     (DEG/KT/KT) (MB)    (MI)  (FT/S)
HARRISON CRIB              33     190/ 25/ 31   N/A
BURNHAM HARBOR             35     180/ 12/ 21   N/A
CALUMET HARBOR             31     170/ 12/ 17 1019.8F
BURNS HARBOR               34     180/ 18     1020.7F
MICHIGAN CITY              30     150/ 17/ 21   N/A
$$

ILZ025>027-034>036-040-047-049-050-058-095>099-291500-
WEST-CENTRAL ILLINOIS

CITY           SKY/WX    TMP DP  RH WIND       PRES   REMARKS
QUINCY         LGT RAIN  37  26  64 S17       30.03F WCI  27
GALESBURG*     LGT SNOW  33  27  79 S21G26    29.99F WCI  21
MACOMB*        RAIN      34  28  77 S14       30.08R WCI  25
JACKSONVILLE*  SUNNY     39  22  49 S22G31    30.09F WCI  29
PITTSFIELD*    PTSUNNY   39  26  58 S17       30.07F WCI  30
$$

ILZ028>032-037-038-041>044-048-051>054-059>061-291500-
CENTRAL ILLINOIS

CITY           SKY/WX    TMP DP  RH WIND       PRES   REMARKS
PONTIAC        MOSUNNY   36  23  60 S22       30.13F WCI  24
BLOOMINGTON    PTSUNNY   36  23  59 S25G32    30.11F WCI  24
DECATUR        PTSUNNY   37  22  54 S23G30    30.14F WCI  26
PEORIA         PTSUNNY   37  21  52 S21G29    30.07F WCI  26
LACON*         PTSUNNY   35  19  51 S14       30.06F WCI  26
LINCOLN*       PTSUNNY   37  23  58 S16G23    30.14S WCI  27
SPRINGFIELD    MOSUNNY   39  21  48 S20G32    30.13F WCI  29
TAYLORVILLE    PTSUNNY   36  21  55 S20G28    30.16F WCI  25
$$

ILZ033-039-045-046-055>057-062-063-291500-
EAST-CENTRAL ILLINOIS

CITY           SKY/WX    TMP DP  RH WIND       PRES   REMARKS
CHAMPAIGN      MOSUNNY   35  23  61 S18       30.17F WCI  24
DANVILLE*      SUNNY     34  20  57 S15       30.18F WCI  24
RANTOUL*       MOSUNNY   36  26  67 S18       30.16F WCI  25
MATTOON        SUNNY     36  21  54 S14G23    30.19F WCI  27
PARIS*         SUNNY     35  24  64 S17       30.22F WCI  25
$$

ILZ079-100>102-291500-
SOUTHWEST ILLINOIS

CITY           SKY/WX    TMP DP  RH WIND       PRES   REMARKS
BELLEVILLE     SUNNY     39  22  50 S9        30.17F WCI  33
CAHOKIA*       SUNNY     40  21  46 S12G24    30.16F
SPARTA*        SUNNY     39  19  44 S14G22    30.21F WCI  31
$$

ILZ064>066-069>071-074>076-080>082-084>086-088>090-092>094-291500-
SOUTH-CENTRAL ILLINOIS

CITY           SKY/WX    TMP DP  RH WIND       PRES   REMARKS
CARBONDALE     SUNNY     40  19  43 S16G25    30.23F
CAIRO*         SUNNY     40  22  47 SE16      30.26F
EFFINGHAM*     SUNNY     37  17  43 SE12G18   30.23S WCI  30
MARION         SUNNY     41  21  45 S14       30.25F
MT. VERNON     SUNNY     37  21  52 S13       30.24S WCI  29
CENTRALIA*     SUNNY     38  20  48 S15       30.22R WCI  30
SALEM*         SUNNY     40  20  45 S16       30.22R
METROPOLIS*    SUNNY     40  22  46 SE9       30.27F
$$

ILZ067-068-072-073-078-083-087-091-291500-
SOUTHEAST ILLINOIS

CITY           SKY/WX    TMP DP  RH WIND       PRES   REMARKS
LAWRENCEVILLE  SUNNY     36  23  59 S17G26    30.25F WCI  26
FLORA*         SUNNY     37  24  60 S14G22    30.23F WCI  28
FAIRFIELD*     SUNNY     38  23  54 S12       30.23F WCI  31
HARRISBURG*    SUNNY     37  23  56 S12       30.27S WCI  30
ROBINSON*      SUNNY     36  23  59 S17G23    30.25F WCI  25
CARMI*         SUNNY     38  23  53 SE14G21   30.25F WCI  30
$$

ABBREVIATIONS USED IN REMARKS
   TC - TEMPERATURE IN CELSIUS
  WCI - WIND CHILL INDEX
   HX - HEAT INDEX
  VSB - VISIBILITY
$$



USA.gov is the U.S. government's official web portal to all federal, state and local government web resources and services.